STARLINK-1711 (46374 NORAD) Tracking and Keplerian Element Data

This shows tracking and keplerian element data for the satellite.

Feedback or suggestion? Click here.




ElementValue
Catalog46374
NameSTARLINK-1711
Epoch Orbit178
Epoch Day268.91668981
Epoch Year2020
RAAN324.4837
Inclination53.0024
Eccentricity0.0001085
Argument of Perigee60.2604
Mean Anonmoly156.242
Mean Motion15.62732923
Decay Rate0.00022367
L11 46374U 20062BB 20268.91668981 .00022367 00000-0 24962-3 0 9996
L22 46374 53.0024 324.4837 0001085 60.2604 156.2420 15.62732923 1789

Live tracking and technical data element details for STARLINK-1711 (NORAD 46374). STARLINK-1711 can be tracked NOW for your location showing map with azimuth and elevation plus other details from your city location.

Track the satellite on the map from your city or location and see movement details for azimuth, elevation, latitude, longitude, range, height, and movement on the map or in text.







IsCatalogInMostPopularTable: catalog: 46374, numindb: 6
Update: records affected: 1



GetName: 46374 STARLINK-1711

Hit Count: updated at: Mon, 28 Sep 2020 16:51:31 GMT